This demonstration page uses our WeatherBlox Daily Observations layout. Learn more.

Left ArrowRight Arrow

41.55636, -103.73856

Hourly Observations for January 2, 2022

Temp ( °F °C ) Dew Point ( °F °C ) Humidity (%) Winds ( mph kmh ) Pressure ( in mb ) Visibility ( mi km ) Precip ( " mm )
12:58 am 00:58 Clear 6 -14.5 -4 -19.9 64 64 WSW 12 19 30.28 1025 10 16 0.00 0.00
1:58 am 01:58 Clear 5 -15.1 -3 -19.7 68 68 W 13 20 30.29 1026 10 16 0.00 0.00
2:58 am 02:58 Clear 6 -14.2 -1 -18.6 70 70 W 13 20 30.27 1025 10 16 0.00 0.00
3:58 am 03:58 Clear 12 -11.2 1 -17.3 61 61 W 14 22 30.26 1025 10 16 0.00 0.00
4:58 am 04:58 Clear 12 -11.3 0 -17.6 60 60 W 10 17 30.29 1026 10 16 0.00 0.00
5:58 am 05:58 Clear 13 -10.4 2 -16.8 60 60 W 12 19 30.32 1027 10 16 0.00 0.00
6:58 am 06:58 Clear 13 -10.6 2 -16.9 60 60 W 10 17 30.35 1028 10 16 0.00 0.00
7:58 am 07:58 Sunny 16 -8.8 4 -15.3 60 60 W 15 24 30.38 1029 10 16 0.00 0.00
8:58 am 08:58 Sunny 25 -4.1 7 -13.9 47 47 W 15 24 30.35 1028 10 16 0.00 0.00
9:58 am 09:58 Sunny 29 -1.7 10 -12.2 45 45 W 23 37 30.34 1027 10 16 0.00 0.00
10:58 am 10:58 Sunny 33 0.5 13 -10.6 44 44 W 16 26 30.32 1027 10 16 0.01 0.25
11:58 am 11:58 Sunny 35 1.9 13 -10.4 40 40 WNW 24 39 30.30 1026 10 16 0.00 0.00
12:58 pm 12:58 Sunny 38 3.1 17 -8.5 43 43 W 14 22 30.28 1025 10 16 0.00 0.00
1:58 pm 13:58 Sunny 39 3.8 17 -8.2 42 42 WNW 22 35 30.30 1026 10 16 0.00 0.00
2:58 pm 14:58 Sunny 39 4.1 16 -9 38 38 WNW 21 33 30.30 1026 10 16 0.00 0.00
3:58 pm 15:58 Sunny 37 2.9 16 -8.9 42 42 W 14 22 30.30 1026 10 16 0.00 0.00
4:58 pm 16:58 Clear 35 1.6 14 -10.1 42 42 W 18 30 30.30 1026 10 16 0.00 0.00
5:58 pm 17:58 Clear 29 -1.5 15 -9.6 54 54 W 15 24 30.31 1026 10 16 0.00 0.00
6:58 pm 18:58 Clear 24 -4.3 14 -10.2 64 64 SSW 10 17 30.35 1028 10 16 0.00 0.00
7:58 pm 19:58 Clear 24 -4.5 12 -10.9 61 61 SW 10 17 30.33 1027 10 16 0.00 0.00
8:58 pm 20:58 Clear 27 -2.8 11 -11.6 51 51 WSW 5 7 30.27 1025 10 16 0.00 0.00
9:58 pm 21:58 Clear 25 -4 10 -12.4 52 52 WSW 9 15 30.27 1025 10 16 0.00 0.00
10:58 pm 22:58 Clear 29 -1.8 10 -12.3 45 45 S 7 11 30.25 1024 10 16 0.00 0.00
11:58 pm 23:58 Clear 27 -2.8 10 -12.2 49 49 SW 3 6 30.21 1023 10 16 0.00 0.00

Powered by AerisWeather